Terminal Aerodrome Forecast
Issued by NWS

Home | Current Version | Previous Version | Text Only | Print | Product List | Glossary On
Versions: 1 2 3 4 5 6 7 8 9 10 11 12 13 14 15 16 17 18 19 20 21 22 23 24 25 26 27 28 29 30 31 32 33 34 35 36 37 38 39 40 41 42 43 44 45 46 47 48 49 50
000
FTAK31 PANC 281137
TAFASN
TAF
PASN 281137Z 2812/2912 02025G35KT 2SM -SN BLSN BKN012
      TEMPO 2812/2816 1SM -SN BLSN
     FM281600 02032G40KT 3SM -SHSN BLSN OVC015
     FM282200 01028G38KT 5SM BLSN VCSH SCT015 BKN020
     FM290600 02025G35KT 6SM BLSN SCT010=

USA.gov is the U.S. government's official web portal to all federal, state and local government web resources and services.